| time (UTC) | temp F | wind direction | speed knots | gust knots | rain 1hr in | rain 24hr in | rain mn in | humidity % | barometer mb |
| 20260506221812 | 70 | 178 | 0.0 | 2.6 | 0.00 | 0.00 | 0.00 | 69 | 1007.6 |
| 20260506221309 | 70 | 158 | 1.7 | 2.6 | 0.00 | 0.00 | 0.00 | 69 | 1007.7 |
| 20260506220807 | 70 | 173 | 2.6 | 6.1 | 0.00 | 0.00 | 0.00 | 68 | 1007.7 |
| 20260506220302 | 70 | 164 | 0.9 | 1.7 | 0.00 | 0.00 | 0.00 | 70 | 1007.7 |
| 20260506215759 | 69 | 194 | 0.0 | 0.9 | 0.00 | 0.00 | 0.00 | 70 | 1007.6 |
| 20260506215254 | 69 | 164 | 0.9 | 1.7 | 0.00 | 0.00 | 0.00 | 70 | 1007.7 |
| 20260506214750 | 69 | 162 | 0.0 | 0.9 | 0.00 | 0.00 | 0.00 | 71 | 1007.6 |
| 20260506214248 | 69 | 158 | 0.9 | 0.9 | 0.00 | 0.00 | 0.00 | 70 | 1007.7 |
| 20260506213746 | 69 | 168 | 0.9 | 0.9 | 0.00 | 0.00 | 0.00 | 70 | 1007.3 |
| 20260506213243 | 69 | 173 | 0.0 | 2.6 | 0.00 | 0.00 | 0.00 | 70 | 1007.3 |
| 20260506212740 | 69 | 136 | 0.0 | 2.6 | 0.00 | 0.00 | 0.00 | 70 | 1007.4 |
| 20260506212236 | 69 | 198 | 1.7 | 3.5 | 0.00 | 0.00 | 0.00 | 70 | 1007.4 |
| 20260506211731 | 69 | 183 | 0.9 | 0.9 | 0.00 | 0.00 | 0.00 | 71 | 1007.2 |
| 20260506211228 | 69 | 255 | 0.0 | 1.7 | 0.00 | 0.00 | 0.00 | 71 | 1007.2 |
| 20260506210725 | 69 | 274 | 0.9 | 1.7 | 0.00 | 0.00 | 0.00 | 71 | 1007.1 |
| 20260506210222 | 69 | 149 | 0.0 | 5.2 | 0.00 | 0.00 | 0.00 | 71 | 1007.1 |
| 20260506205719 | 69 | 31 | 2.6 | 3.5 | 0.00 | 0.00 | 0.00 | 70 | 1007.1 |
| 20260506205214 | 69 | 147 | 0.9 | 3.5 | 0.00 | 0.00 | 0.00 | 71 | 1006.7 |
| 20260506204711 | 69 | 169 | 0.0 | 0.9 | 0.00 | 0.00 | 0.00 | 71 | 1007.1 |
| 20260506204209 | 69 | 176 | 0.9 | 2.6 | 0.00 | 0.00 | 0.00 | 72 | 1007.0 |
| 20260506203707 | 68 | 177 | 0.0 | 2.6 | 0.00 | 0.00 | 0.00 | 73 | 1007.0 |
| 20260506203203 | 68 | 136 | 0.0 | 0.9 | 0.00 | 0.00 | 0.00 | 72 | 1006.8 |
| 20260506202701 | 68 | 120 | 0.9 | 1.7 | 0.00 | 0.00 | 0.00 | 73 | 1007.1 |
| 20260506202157 | 68 | 147 | 0.0 | 0.9 | 0.00 | 0.00 | 0.00 | 73 | 1007.1 |
| 20260506201654 | 68 | 138 | 0.0 | 0.9 | 0.00 | 0.00 | 0.00 | 73 | 1007.1 |
| 20260506201150 | 68 | 180 | 0.0 | 5.2 | 0.00 | 0.00 | 0.00 | 73 | 1007.3 |
| 20260506200647 | 68 | 154 | 0.0 | 1.7 | 0.00 | 0.00 | 0.00 | 74 | 1007.2 |
| 20260506200144 | 68 | 152 | 0.0 | 3.5 | 0.00 | 0.00 | 0.00 | 73 | 1007.3 |
| 20260506195641 | 67 | 173 | 0.9 | 1.7 | 0.00 | 0.00 | 0.00 | 74 | 1007.4 |
| 20260506195137 | 67 | 159 | 3.5 | 5.2 | 0.00 | 0.00 | 0.00 | 74 | 1007.4 |
| 20260506194635 | 67 | 269 | 1.7 | 2.6 | 0.00 | 0.00 | 0.00 | 75 | 1007.6 |
| 20260506194131 | 67 | 235 | 0.0 | 1.7 | 0.00 | 0.00 | 0.00 | 75 | 1007.4 |
| 20260506193629 | 66 | 188 | 0.0 | 2.6 | 0.00 | 0.00 | 0.00 | 76 | 1007.7 |
| 20260506193126 | 66 | 141 | 1.7 | 2.6 | 0.00 | 0.00 | 0.00 | 77 | 1007.6 |
| 20260506192622 | 66 | 164 | 0.0 | 1.7 | 0.00 | 0.00 | 0.00 | 79 | 1007.6 |
| 20260506192118 | 65 | 110 | 0.0 | 2.6 | 0.00 | 0.00 | 0.00 | 80 | 1007.9 |
| 20260506191615 | 65 | 74 | 0.9 | 1.7 | 0.00 | 0.00 | 0.00 | 81 | 1007.7 |
| 20260506191111 | 65 | 213 | 0.9 | 0.9 | 0.00 | 0.00 | 0.00 | 81 | 1007.7 |
| 20260506190609 | 65 | 165 | 0.0 | 0.9 | 0.00 | 0.00 | 0.00 | 80 | 1007.8 |
| 20260506190105 | 66 | 128 | 0.0 | 1.7 | 0.00 | 0.00 | 0.00 | 77 | 1007.8 |
| 20260506185603 | 67 | 165 | 1.7 | 6.1 | 0.00 | 0.00 | 0.00 | 72 | 1008.0 |
| 20260506185059 | 68 | 160 | 1.7 | 5.2 | 0.00 | 0.00 | 0.00 | 71 | 1008.0 |
| 20260506184556 | 68 | 226 | 1.7 | 2.6 | 0.00 | 0.00 | 0.00 | 70 | 1008.0 |
| 20260506184054 | 67 | 152 | 0.0 | 6.1 | 0.00 | 0.00 | 0.00 | 71 | 1007.8 |
| 20260506183549 | 67 | 165 | 0.9 | 5.2 | 0.00 | 0.00 | 0.00 | 71 | 1007.8 |
| 20260506183046 | 67 | 193 | 0.9 | 6.1 | 0.00 | 0.00 | 0.00 | 71 | 1007.9 |
| 20260506182543 | 68 | 192 | 1.7 | 7.0 | 0.00 | 0.00 | 0.00 | 69 | 1008.0 |
| 20260506182041 | 68 | 247 | 0.9 | 7.0 | 0.00 | 0.00 | 0.00 | 68 | 1008.1 |
| 20260506181539 | 69 | 123 | 3.5 | 11.3 | 0.00 | 0.00 | 0.00 | 65 | 1008.3 |
| 20260506181035 | 70 | 306 | 2.6 | 7.0 | 0.00 | 0.00 | 0.00 | 62 | 1007.8 |
| 20260506180532 | 71 | 212 | 2.6 | 7.0 | 0.00 | 0.00 | 0.00 | 60 | 1008.0 |
| 20260506180028 | 71 | 178 | 6.1 | 16.5 | 0.00 | 0.00 | 0.00 | 61 | 1008.0 |
| 20260506175525 | 71 | 164 | 1.7 | 3.5 | 0.00 | 0.00 | 0.00 | 62 | 1008.1 |
| 20260506175021 | 71 | 213 | 0.9 | 3.5 | 0.00 | 0.00 | 0.00 | 61 | 1008.2 |
| 20260506174520 | 72 | 151 | 0.9 | 2.6 | 0.00 | 0.00 | 0.00 | 60 | 1008.2 |
| 20260506174015 | 71 | 92 | 0.9 | 3.5 | 0.00 | 0.00 | 0.00 | 60 | 1008.2 |
| 20260506173514 | 72 | 165 | 2.6 | 5.2 | 0.00 | 0.00 | 0.00 | 60 | 1008.2 |
| 20260506173010 | 72 | 112 | 5.2 | 7.0 | 0.00 | 0.00 | 0.00 | 61 | 1008.2 |
| 20260506172508 | 71 | 278 | 1.7 | 7.0 | 0.00 | 0.00 | 0.00 | 61 | 1008.3 |
| 20260506172004 | 71 | 107 | 0.9 | 7.8 | 0.00 | 0.00 | 0.00 | 61 | 1008.2 |
| 20260506171501 | 72 | 158 | 1.7 | 7.8 | 0.00 | 0.00 | 0.00 | 62 | 1008.3 |
| 20260506170959 | 72 | 206 | 1.7 | 3.5 | 0.00 | 0.00 | 0.00 | 61 | 1008.4 |
| 20260506170455 | 71 | 108 | 1.7 | 3.5 | 0.00 | 0.00 | 0.00 | 61 | 1008.5 |
| 20260506165954 | 70 | 196 | 1.7 | 3.5 | 0.00 | 0.00 | 0.00 | 62 | 1008.7 |
| 20260506165452 | 70 | 238 | 0.9 | 6.1 | 0.00 | 0.00 | 0.00 | 62 | 1008.6 |
| 20260506164948 | 70 | 142 | 1.7 | 2.6 | 0.00 | 0.00 | 0.00 | 62 | 1008.7 |
| 20260506164445 | 70 | 163 | 1.7 | 1.7 | 0.00 | 0.00 | 0.00 | 63 | 1009.1 |
| 20260506163942 | 70 | 157 | 0.0 | 3.5 | 0.00 | 0.00 | 0.00 | 62 | 1009.2 |
| 20260506163437 | 70 | 162 | 0.0 | 1.7 | 0.00 | 0.00 | 0.00 | 63 | 1009.3 |
| 20260506162932 | 70 | 177 | 0.9 | 1.7 | 0.00 | 0.00 | 0.00 | 63 | 1009.7 |
| 20260506162430 | 70 | 196 | 0.0 | 0.9 | 0.00 | 0.00 | 0.00 | 63 | 1009.6 |
| 20260506161927 | 70 | 130 | 1.7 | 5.2 | 0.00 | 0.00 | 0.00 | 62 | 1009.9 |
| 20260506161426 | 71 | 151 | 0.9 | 1.7 | 0.00 | 0.00 | 0.00 | 60 | 1009.8 |
| 20260506160923 | 71 | 217 | 1.7 | 1.7 | 0.00 | 0.00 | 0.00 | 58 | 1009.7 |
| 20260506160420 | 71 | 167 | 0.9 | 5.2 | 0.00 | 0.00 | 0.00 | 57 | 1009.6 |
| 20260506155918 | 71 | 168 | 0.9 | 2.6 | 0.00 | 0.00 | 0.00 | 56 | 1009.7 |
| 20260506155415 | 72 | 197 | 0.9 | 6.1 | 0.00 | 0.00 | 0.00 | 56 | 1009.5 |
| 20260506153536 | 74 | 167 | 1.7 | 1.7 | 0.00 | 0.00 | 0.00 | 53 | 1009.8 |
| 20260506153034 | 73 | 173 | 0.9 | 6.1 | 0.00 | 0.00 | 0.00 | 54 | 1009.6 |
| 20260506152531 | 73 | 129 | 1.7 | 5.2 | 0.00 | 0.00 | 0.00 | 54 | 1009.8 |
| 20260506152029 | 72 | 197 | 1.7 | 3.5 | 0.00 | 0.00 | 0.00 | 55 | 1010.0 |
| 20260506151526 | 72 | 134 | 3.5 | 3.5 | 0.00 | 0.00 | 0.00 | 55 | 1009.7 |
| 20260506151023 | 72 | 124 | 0.9 | 5.2 | 0.00 | 0.00 | 0.00 | 55 | 1009.8 |
| 20260506150519 | 72 | 165 | 0.0 | 1.7 | 0.00 | 0.00 | 0.00 | 55 | 1009.9 |
| 20260506150017 | 72 | 180 | 2.6 | 6.1 | 0.00 | 0.00 | 0.00 | 55 | 1009.8 |
| 20260506145513 | 72 | 202 | 0.9 | 1.7 | 0.00 | 0.00 | 0.00 | 55 | 1009.8 |
| 20260506145011 | 73 | 220 | 2.6 | 7.8 | 0.00 | 0.00 | 0.00 | 53 | 1009.8 |
| 20260506144507 | 73 | 146 | 9.6 | 15.6 | 0.00 | 0.00 | 0.00 | 52 | 1009.8 |
| 20260506144005 | 74 | 140 | 0.9 | 2.6 | 0.00 | 0.00 | 0.00 | 53 | 1009.7 |
| 20260506143502 | 73 | 170 | 0.9 | 2.6 | 0.00 | 0.00 | 0.00 | 53 | 1009.7 |
| 20260506143000 | 73 | 169 | 3.5 | 3.5 | 0.00 | 0.00 | 0.00 | 53 | 1009.8 |
| 20260506142458 | 73 | 218 | 1.7 | 2.6 | 0.00 | 0.00 | 0.00 | 54 | 1009.7 |
| 20260506141956 | 73 | 164 | 0.0 | 5.2 | 0.00 | 0.00 | 0.00 | 55 | 1009.8 |
| 20260506141453 | 73 | 168 | 0.9 | 3.5 | 0.00 | 0.00 | 0.00 | 55 | 1009.7 |
| 20260506140952 | 72 | 267 | 3.5 | 3.5 | 0.00 | 0.00 | 0.00 | 55 | 1009.7 |
| 20260506140448 | 73 | 163 | 1.7 | 3.5 | 0.00 | 0.00 | 0.00 | 56 | 1009.6 |
| 20260506135945 | 73 | 168 | 1.7 | 12.2 | 0.00 | 0.00 | 0.00 | 55 | 1009.5 |
| 20260506135443 | 73 | 165 | 1.7 | 8.7 | 0.00 | 0.00 | 0.00 | 55 | 1009.6 |
| 20260506134938 | 73 | 200 | 3.5 | 7.0 | 0.00 | 0.00 | 0.00 | 56 | 1009.7 |
| 20260506134435 | 73 | 174 | 0.9 | 5.2 | 0.00 | 0.00 | 0.00 | 57 | 1009.6 |
| 20260506133932 | 72 | 140 | 1.7 | 3.5 | 0.00 | 0.00 | 0.00 | 56 | 1010.0 |
| 20260506133429 | 72 | 148 | 1.7 | 7.0 | 0.00 | 0.00 | 0.00 | 56 | 1010.1 |
| 20260506132925 | 72 | 166 | 0.9 | 8.7 | 0.00 | 0.00 | 0.00 | 56 | 1010.1 |
| 20260506132422 | 72 | 250 | 3.5 | 5.2 | 0.00 | 0.00 | 0.00 | 57 | 1010.1 |
| 20260506131920 | 71 | 159 | 5.2 | 7.0 | 0.00 | 0.00 | 0.00 | 59 | 1010.2 |
| 20260506131416 | 70 | 162 | 1.7 | 7.0 | 0.00 | 0.00 | 0.00 | 60 | 1010.3 |
| 20260506130913 | 70 | 147 | 3.5 | 6.1 | 0.00 | 0.00 | 0.00 | 61 | 1010.4 |
| 20260506130410 | 70 | 173 | 1.7 | 5.2 | 0.00 | 0.00 | 0.00 | 62 | 1010.3 |
| 20260506125908 | 70 | 151 | 1.7 | 7.8 | 0.00 | 0.00 | 0.00 | 63 | 1010.4 |
| 20260506125406 | 69 | 135 | 1.7 | 2.6 | 0.00 | 0.00 | 0.00 | 64 | 1010.0 |
| 20260506124904 | 69 | 158 | 2.6 | 11.3 | 0.00 | 0.00 | 0.00 | 65 | 1010.2 |
| 20260506124401 | 68 | 159 | 3.5 | 5.2 | 0.00 | 0.00 | 0.00 | 67 | 1010.3 |
| 20260506123859 | 67 | 262 | 1.7 | 9.6 | 0.00 | 0.00 | 0.00 | 68 | 1010.1 |
| 20260506123357 | 66 | 139 | 1.7 | 5.2 | 0.00 | 0.00 | 0.00 | 69 | 1010.5 |
| 20260506122854 | 66 | 124 | 3.5 | 6.1 | 0.00 | 0.00 | 0.00 | 70 | 1010.2 |
| 20260506122350 | 66 | 160 | 0.9 | 3.5 | 0.00 | 0.00 | 0.00 | 71 | 1010.3 |
| 20260506121849 | 66 | 142 | 3.5 | 8.7 | 0.00 | 0.00 | 0.00 | 70 | 1010.5 |
| 20260506121345 | 66 | 196 | 0.9 | 13.0 | 0.00 | 0.00 | 0.00 | 71 | 1010.3 |
| 20260506120842 | 65 | 128 | 2.6 | 2.6 | 0.00 | 0.00 | 0.00 | 71 | 1010.2 |
| 20260506120340 | 65 | 119 | 4.3 | 7.8 | 0.00 | 0.00 | 0.00 | 72 | 1010.5 |
| 20260506115837 | 65 | 153 | 0.9 | 7.0 | 0.00 | 0.00 | 0.00 | 73 | 1010.5 |
| 20260506115335 | 65 | 147 | 4.3 | 7.0 | 0.00 | 0.00 | 0.00 | 72 | 1010.5 |
| 20260506114833 | 65 | 95 | 2.6 | 3.5 | 0.00 | 0.00 | 0.00 | 73 | 1010.6 |
| 20260506114331 | 64 | 130 | 2.6 | 6.1 | 0.00 | 0.00 | 0.00 | 73 | 1010.5 |
| 20260506113829 | 64 | 124 | 3.5 | 9.6 | 0.00 | 0.00 | 0.00 | 74 | 1010.6 |
| 20260506113326 | 64 | 191 | 1.7 | 7.0 | 0.00 | 0.00 | 0.00 | 75 | 1010.6 |
| 20260506112823 | 63 | 178 | 0.9 | 5.2 | 0.00 | 0.00 | 0.00 | 77 | 1010.5 |
| 20260506112320 | 62 | 179 | 1.7 | 2.6 | 0.00 | 0.00 | 0.00 | 78 | 1010.6 |
| 20260506111817 | 62 | 188 | 0.0 | 2.6 | 0.00 | 0.00 | 0.00 | 78 | 1010.6 |
| 20260506111315 | 62 | 181 | 1.7 | 2.6 | 0.00 | 0.00 | 0.00 | 78 | 1010.9 |
| 20260506110813 | 62 | 212 | 1.7 | 2.6 | 0.00 | 0.00 | 0.00 | 78 | 1010.7 |
| 20260506110309 | 62 | 146 | 0.9 | 2.6 | 0.00 | 0.00 | 0.00 | 79 | 1010.7 |
| 20260506105806 | 62 | 135 | 5.2 | 7.0 | 0.00 | 0.00 | 0.00 | 80 | 1010.4 |
| 20260506105305 | 62 | 163 | 1.7 | 3.5 | 0.00 | 0.00 | 0.00 | 80 | 1010.6 |
| 20260506104800 | 61 | 136 | 0.0 | 3.5 | 0.00 | 0.00 | 0.00 | 81 | 1010.6 |
| 20260506104258 | 61 | 109 | 0.9 | 3.5 | 0.00 | 0.00 | 0.00 | 81 | 1010.6 |
| 20260506103755 | 61 | 214 | 1.7 | 7.0 | 0.00 | 0.00 | 0.00 | 82 | 1010.6 |
| 20260506103253 | 61 | 167 | 1.7 | 5.2 | 0.00 | 0.00 | 0.00 | 82 | 1010.7 |
| 20260506102750 | 61 | 207 | 0.9 | 5.2 | 0.00 | 0.00 | 0.00 | 82 | 1010.6 |
| 20260506102248 | 61 | 161 | 0.0 | 3.5 | 0.00 | 0.00 | 0.00 | 82 | 1010.5 |
| 20260506101745 | 61 | 128 | 1.7 | 3.5 | 0.00 | 0.00 | 0.00 | 82 | 1010.6 |
| 20260506101241 | 61 | 162 | 3.5 | 5.2 | 0.00 | 0.00 | 0.00 | 82 | 1010.5 |
| 20260506100739 | 61 | 133 | 0.9 | 2.6 | 0.00 | 0.00 | 0.00 | 82 | 1010.4 |
| 20260506100237 | 61 | 187 | 1.7 | 2.6 | 0.00 | 0.00 | 0.00 | 82 | 1010.3 |
| 20260506095735 | 61 | 187 | 1.7 | 3.5 | 0.00 | 0.00 | 0.00 | 82 | 1010.3 |
| 20260506095232 | 61 | 150 | 0.0 | 1.7 | 0.00 | 0.00 | 0.00 | 82 | 1010.5 |
| 20260506094729 | 61 | 171 | 1.7 | 2.6 | 0.00 | 0.00 | 0.00 | 82 | 1010.3 |
| 20260506094227 | 61 | 141 | 1.7 | 3.5 | 0.00 | 0.00 | 0.00 | 82 | 1010.2 |
| 20260506093725 | 61 | 159 | 2.6 | 3.5 | 0.00 | 0.00 | 0.00 | 82 | 1010.3 |
| 20260506093222 | 61 | 170 | 0.0 | 2.6 | 0.00 | 0.00 | 0.00 | 81 | 1010.5 |
| 20260506092720 | 61 | 143 | 2.6 | 7.8 | 0.00 | 0.00 | 0.00 | 81 | 1010.5 |
| 20260506092217 | 61 | 155 | 0.9 | 5.2 | 0.00 | 0.00 | 0.00 | 81 | 1010.4 |
| 20260506091715 | 61 | 156 | 4.3 | 6.1 | 0.00 | 0.00 | 0.00 | 81 | 1010.3 |
| 20260506091212 | 61 | 157 | 0.9 | 6.1 | 0.00 | 0.00 | 0.00 | 81 | 1010.5 |
| 20260506090710 | 62 | 144 | 2.6 | 5.2 | 0.00 | 0.00 | 0.00 | 81 | 1010.3 |
| 20260506090206 | 62 | 219 | 1.7 | 7.8 | 0.00 | 0.00 | 0.00 | 81 | 1010.6 |
| 20260506085703 | 62 | 183 | 1.7 | 2.6 | 0.00 | 0.00 | 0.00 | 80 | 1010.5 |
| 20260506085159 | 62 | 168 | 2.6 | 5.2 | 0.00 | 0.00 | 0.00 | 80 | 1010.7 |
| 20260506084656 | 62 | 164 | 0.0 | 5.2 | 0.00 | 0.00 | 0.00 | 80 | 1010.6 |
| 20260506084152 | 62 | 183 | 0.9 | 5.2 | 0.00 | 0.00 | 0.00 | 79 | 1010.6 |
| 20260506083649 | 62 | 173 | 2.6 | 3.5 | 0.00 | 0.00 | 0.00 | 79 | 1010.5 |
| 20260506083147 | 62 | 130 | 2.6 | 7.0 | 0.00 | 0.00 | 0.00 | 79 | 1010.6 |
| 20260506082644 | 62 | 151 | 0.0 | 7.0 | 0.00 | 0.00 | 0.00 | 79 | 1010.7 |
| 20260506082145 | 62 | 181 | 4.3 | 6.1 | 0.00 | 0.00 | 0.00 | 79 | 1010.4 |
| 20260506081643 | 62 | 231 | 3.5 | 6.1 | 0.00 | 0.00 | 0.00 | 79 | 1010.7 |
| 20260506081141 | 63 | 152 | 0.0 | 2.6 | 0.00 | 0.00 | 0.00 | 78 | 1010.6 |
| 20260506080638 | 63 | 147 | 0.0 | 3.5 | 0.00 | 0.00 | 0.00 | 78 | 1010.7 |
| 20260506080134 | 63 | 203 | 1.7 | 5.2 | 0.00 | 0.00 | 0.00 | 78 | 1010.5 |
| 20260506073119 | 63 | 151 | 1.7 | 2.6 | 0.00 | 0.00 | 0.00 | 77 | 1010.5 |
| 20260506072615 | 63 | 170 | 3.5 | 6.1 | 0.00 | 0.00 | 0.00 | 77 | 1010.7 |
| 20260506072113 | 64 | 178 | 2.6 | 3.5 | 0.00 | 0.00 | 0.00 | 77 | 1011.0 |
| 20260506071610 | 64 | 144 | 2.6 | 3.5 | 0.00 | 0.00 | 0.00 | 77 | 1010.9 |
| 20260506071108 | 64 | 181 | 0.9 | 2.6 | 0.00 | 0.00 | 0.00 | 77 | 1010.7 |
| 20260506070605 | 64 | 125 | 1.7 | 2.6 | 0.00 | 0.00 | 0.00 | 77 | 1010.8 |
| 20260506062039 | 63 | 136 | 2.6 | 5.2 | 0.00 | 0.00 | 0.00 | 76 | 1010.9 |
| 20260506061535 | 63 | 156 | 0.9 | 3.5 | 0.00 | 0.00 | 0.00 | 77 | 1011.0 |
| 20260506061033 | 63 | 152 | 0.9 | 1.7 | 0.00 | 0.00 | 0.00 | 76 | 1010.8 |
| 20260506060531 | 63 | 150 | 1.7 | 3.5 | 0.00 | 0.00 | 0.00 | 76 | 1010.7 |
| 20260506051000 | 65 | 187 | 0.9 | 5.2 | 0.00 | 0.00 | 0.00 | 70 | 1011.2 |
| 20260506050458 | 66 | 159 | 2.6 | 5.2 | 0.00 | 0.00 | 0.00 | 70 | 1011.3 |
| 20260506044948 | 66 | 111 | 3.5 | 5.2 | 0.00 | 0.00 | 0.00 | 69 | 1011.3 |
| 20260506044446 | 66 | 154 | 1.7 | 6.1 | 0.00 | 0.00 | 0.00 | 68 | 1011.2 |
| 20260506043942 | 66 | 226 | 1.7 | 3.5 | 0.00 | 0.00 | 0.00 | 68 | 1011.3 |
| 20260506043440 | 66 | 132 | 0.0 | 5.2 | 0.00 | 0.00 | 0.00 | 68 | 1011.3 |
| 20260506042937 | 66 | 197 | 2.6 | 5.2 | 0.00 | 0.00 | 0.00 | 68 | 1011.3 |
| 20260506042437 | 66 | 154 | 2.6 | 2.6 | 0.00 | 0.00 | 0.00 | 67 | 1011.2 |
| 20260506041934 | 66 | 153 | 2.6 | 3.5 | 0.00 | 0.00 | 0.00 | 67 | 1011.2 |
| 20260506041432 | 66 | 270 | 0.9 | 7.8 | 0.00 | 0.00 | 0.00 | 67 | 1011.2 |
| 20260506040929 | 66 | 183 | 0.0 | 6.1 | 0.00 | 0.00 | 0.00 | 67 | 1011.4 |
| 20260506040426 | 66 | 183 | 0.9 | 6.1 | 0.00 | 0.00 | 0.00 | 67 | 1011.3 |
| 20260506035922 | 67 | 152 | 2.6 | 3.5 | 0.00 | 0.00 | 0.00 | 67 | 1011.1 |
| 20260506035420 | 66 | 142 | 1.7 | 7.0 | 0.00 | 0.00 | 0.00 | 67 | 1011.1 |
| 20260506034917 | 67 | 207 | 1.7 | 2.6 | 0.00 | 0.00 | 0.00 | 66 | 1011.2 |
| 20260506034414 | 67 | 152 | 1.7 | 3.5 | 0.00 | 0.00 | 0.00 | 66 | 1011.4 |
| 20260506033911 | 67 | 170 | 5.2 | 7.0 | 0.00 | 0.00 | 0.00 | 66 | 1011.3 |
| 20260506033408 | 67 | 199 | 2.6 | 3.5 | 0.00 | 0.00 | 0.00 | 66 | 1011.4 |
| 20260506032905 | 67 | 157 | 2.6 | 5.2 | 0.00 | 0.00 | 0.00 | 66 | 1011.2 |
| 20260506032402 | 67 | 161 | 1.7 | 8.7 | 0.00 | 0.00 | 0.00 | 66 | 1011.2 |
| 20260506031858 | 67 | 144 | 1.7 | 6.1 | 0.00 | 0.00 | 0.00 | 66 | 1011.3 |
| 20260506031356 | 67 | 155 | 2.6 | 5.2 | 0.00 | 0.00 | 0.00 | 66 | 1011.2 |
| 20260506030853 | 67 | 126 | 1.7 | 3.5 | 0.00 | 0.00 | 0.00 | 66 | 1011.2 |
| 20260506030351 | 67 | 156 | 0.9 | 6.1 | 0.00 | 0.00 | 0.00 | 65 | 1011.2 |
| 20260506025848 | 67 | 160 | 3.5 | 7.8 | 0.00 | 0.00 | 0.00 | 66 | 1011.4 |
| 20260506025344 | 67 | 170 | 1.7 | 5.2 | 0.00 | 0.00 | 0.00 | 66 | 1011.1 |
| 20260506024841 | 67 | 143 | 1.7 | 2.6 | 0.00 | 0.00 | 0.00 | 65 | 1011.2 |
| 20260506024338 | 67 | 209 | 1.7 | 7.0 | 0.00 | 0.00 | 0.00 | 65 | 1011.3 |
| 20260506023834 | 67 | 197 | 0.9 | 7.0 | 0.00 | 0.00 | 0.00 | 64 | 1011.4 |
| 20260506023331 | 67 | 156 | 0.9 | 3.5 | 0.00 | 0.00 | 0.00 | 64 | 1011.5 |
| 20260506022828 | 68 | 214 | 2.6 | 3.5 | 0.00 | 0.00 | 0.00 | 63 | 1011.5 |
| 20260506022326 | 68 | 163 | 5.2 | 7.0 | 0.00 | 0.00 | 0.00 | 63 | 1011.5 |
| 20260506021824 | 68 | 216 | 1.7 | 5.2 | 0.00 | 0.00 | 0.00 | 62 | 1011.4 |
| 20260506021320 | 68 | 207 | 4.3 | 7.0 | 0.00 | 0.00 | 0.00 | 61 | 1011.5 |
| 20260506020817 | 68 | 163 | 1.7 | 12.2 | 0.00 | 0.00 | 0.00 | 61 | 1011.3 |
| 20260506020315 | 68 | 156 | 2.6 | 5.2 | 0.00 | 0.00 | 0.00 | 60 | 1011.4 |
| 20260506015813 | 68 | 111 | 7.8 | 9.6 | 0.00 | 0.00 | 0.00 | 60 | 1011.3 |
| 20260506015310 | 68 | 158 | 4.3 | 9.6 | 0.00 | 0.00 | 0.00 | 59 | 1011.6 |
| 20260506014806 | 68 | 166 | 2.6 | 8.7 | 0.00 | 0.00 | 0.00 | 59 | 1011.6 |
| 20260506014303 | 68 | 213 | 3.5 | 7.8 | 0.00 | 0.00 | 0.00 | 59 | 1011.2 |
| 20260506013800 | 68 | 153 | 1.7 | 7.8 | 0.00 | 0.00 | 0.00 | 59 | 1011.2 |
| 20260506013257 | 68 | 197 | 3.5 | 8.7 | 0.00 | 0.00 | 0.00 | 58 | 1011.2 |
| 20260506012753 | 69 | 132 | 4.3 | 7.0 | 0.00 | 0.00 | 0.00 | 58 | 1011.1 |
| 20260506012250 | 69 | 229 | 3.5 | 7.8 | 0.00 | 0.00 | 0.00 | 57 | 1011.0 |
| 20260506011748 | 69 | 222 | 5.2 | 7.8 | 0.00 | 0.00 | 0.00 | 57 | 1011.0 |
| 20260506011244 | 69 | 157 | 3.5 | 8.7 | 0.00 | 0.00 | 0.00 | 56 | 1011.0 |
| 20260506010742 | 69 | 196 | 4.3 | 7.8 | 0.00 | 0.00 | 0.00 | 56 | 1011.0 |
| 20260506010239 | 69 | 134 | 5.2 | 8.7 | 0.00 | 0.00 | 0.00 | 56 | 1010.9 |
| 20260506005737 | 69 | 95 | 4.3 | 6.1 | 0.00 | 0.00 | 0.00 | 56 | 1010.9 |
| 20260506005233 | 69 | 151 | 3.5 | 5.2 | 0.00 | 0.00 | 0.00 | 56 | 1011.0 |
| 20260506004729 | 69 | 223 | 3.5 | 6.1 | 0.00 | 0.00 | 0.00 | 55 | 1010.9 |
| 20260506004227 | 70 | 146 | 0.0 | 0.9 | 0.00 | 0.00 | 0.00 | 55 | 1010.9 |
| 20260506003722 | 70 | 147 | 1.7 | 7.0 | 0.00 | 0.00 | 0.00 | 55 | 1010.7 |
| 20260506003219 | 70 | 151 | 1.7 | 8.7 | 0.00 | 0.00 | 0.00 | 54 | 1010.7 |
| 20260506002715 | 70 | 129 | 1.7 | 2.6 | 0.00 | 0.00 | 0.00 | 54 | 1010.7 |
| 20260506002212 | 71 | 171 | 5.2 | 7.0 | 0.00 | 0.00 | 0.00 | 54 | 1010.7 |
| 20260506001707 | 71 | 153 | 1.7 | 6.1 | 0.00 | 0.00 | 0.00 | 54 | 1010.6 |
| 20260506001205 | 71 | 151 | 2.6 | 5.2 | 0.00 | 0.00 | 0.00 | 53 | 1010.4 |
| 20260506000702 | 71 | 128 | 0.9 | 6.1 | 0.00 | 0.00 | 0.00 | 53 | 1010.5 |
| 20260506000159 | 72 | 230 | 2.6 | 5.2 | 0.00 | 0.00 | 0.00 | 52 | 1010.5 |
| 20260505235657 | 72 | 191 | 3.5 | 6.1 | 0.00 | 0.00 | 0.00 | 52 | 1010.3 |
| 20260505235155 | 72 | 164 | 2.6 | 6.1 | 0.00 | 0.00 | 0.00 | 51 | 1010.3 |
| 20260505234651 | 73 | 229 | 4.3 | 7.8 | 0.00 | 0.00 | 0.00 | 51 | 1010.2 |
| 20260505234148 | 73 | 214 | 2.6 | 6.1 | 0.00 | 0.00 | 0.00 | 50 | 1010.2 |
| 20260505233645 | 73 | 134 | 5.2 | 8.7 | 0.00 | 0.00 | 0.00 | 50 | 1010.0 |
| 20260505233142 | 74 | 156 | 4.3 | 7.0 | 0.00 | 0.00 | 0.00 | 49 | 1010.0 |
| 20260505232640 | 75 | 148 | 2.6 | 12.2 | 0.00 | 0.00 | 0.00 | 47 | 1010.0 |
| 20260505232137 | 76 | 159 | 5.2 | 7.8 | 0.00 | 0.00 | 0.00 | 45 | 1009.9 |
| 20260505231634 | 77 | 201 | 3.5 | 5.2 | 0.00 | 0.00 | 0.00 | 44 | 1009.7 |
| 20260505231133 | 77 | 146 | 4.3 | 9.6 | 0.00 | 0.00 | 0.00 | 43 | 1009.5 |
| 20260505230631 | 77 | 108 | 0.9 | 5.2 | 0.00 | 0.00 | 0.00 | 42 | 1009.6 |
| 20260505230126 | 77 | 131 | 1.7 | 2.6 | 0.00 | 0.00 | 0.00 | 42 | 1009.7 |
| 20260505225623 | 77 | 149 | 3.5 | 8.7 | 0.00 | 0.00 | 0.00 | 42 | 1009.6 |
| 20260505225119 | 77 | 199 | 0.9 | 7.0 | 0.00 | 0.00 | 0.00 | 43 | 1009.5 |
| 20260505224616 | 77 | 164 | 7.8 | 13.0 | 0.00 | 0.00 | 0.00 | 42 | 1009.4 |
| 20260505224114 | 78 | 193 | 2.6 | 7.8 | 0.00 | 0.00 | 0.00 | 42 | 1009.2 |
| 20260505223611 | 78 | 179 | 2.6 | 2.6 | 0.00 | 0.00 | 0.00 | 41 | 1009.2 |
| 20260505223107 | 79 | 127 | 8.7 | 12.2 | 0.00 | 0.00 | 0.00 | 41 | 1009.2 |
| 20260505222603 | 79 | 134 | 2.6 | 7.0 | 0.00 | 0.00 | 0.00 | 40 | 1009.1 |